| time (UTC) | temp C | wind direction | speed KPH | gust KPH | rain 1hr cm | rain 24hr cm | rain mn cm | humidity % | barometer mb |
| 20260504050113 | 6 | 0 | 1.6 | 3.2 | 0.00 | 0.00 | 0.00 | 67 | 1015.5 |
| 20260504044556 | 6 | 0 | 0.0 | 0.0 | 0.00 | 0.00 | 0.00 | 74 | 1015.4 |
| 20260504043104 | 6 | 0 | 0.0 | 0.0 | 0.00 | 0.00 | 0.00 | 75 | 1015.4 |
| 20260504041600 | 6 | 0 | 0.0 | 0.0 | 0.00 | 0.00 | 0.00 | 75 | 1015.3 |
| 20260504040105 | 6 | 0 | 0.0 | 0.0 | 0.00 | 0.00 | 0.00 | 76 | 1015.4 |
| 20260504034606 | 6 | 0 | 0.0 | 1.6 | 0.00 | 0.00 | 0.00 | 76 | 1015.1 |
| 20260504033100 | 6 | 0 | 0.0 | 0.0 | 0.00 | 0.00 | 0.00 | 76 | 1015.1 |
| 20260504031608 | 6 | 0 | 0.0 | 1.6 | 0.00 | 0.00 | 0.00 | 75 | 1014.9 |
| 20260504030114 | 6 | 0 | 0.0 | 0.0 | 0.00 | 0.00 | 0.00 | 76 | 1014.8 |
| 20260504024556 | 6 | 0 | 0.0 | 0.0 | 0.00 | 0.00 | 0.00 | 74 | 1014.7 |
| 20260504023057 | 6 | 0 | 0.0 | 0.0 | 0.00 | 0.00 | 0.00 | 74 | 1014.6 |
| 20260504021609 | 6 | 0 | 0.0 | 0.0 | 0.00 | 0.00 | 0.00 | 73 | 1014.8 |
| 20260504020056 | 6 | 0 | 0.0 | 0.0 | 0.00 | 0.00 | 0.00 | 73 | 1014.8 |
| 20260504014558 | 7 | 0 | 0.0 | 0.0 | 0.00 | 0.00 | 0.00 | 69 | 1014.6 |
| 20260504013055 | 7 | 0 | 0.0 | 0.0 | 0.00 | 0.00 | 0.00 | 65 | 1014.7 |
| 20260504011556 | 7 | 0 | 0.0 | 0.0 | 0.00 | 0.00 | 0.00 | 64 | 1014.6 |
| 20260504010054 | 8 | 0 | 0.0 | 0.0 | 0.00 | 0.00 | 0.00 | 63 | 1014.5 |
| 20260504004557 | 8 | 0 | 0.0 | 0.0 | 0.00 | 0.00 | 0.00 | 55 | 1014.3 |
| 20260504003055 | 9 | 0 | 0.0 | 0.0 | 0.00 | 0.00 | 0.00 | 51 | 1014.1 |
| 20260504001556 | 10 | 0 | 0.0 | 0.0 | 0.00 | 0.00 | 0.00 | 45 | 1014.2 |
| 20260504000136 | 12 | 0 | 0.0 | 0.0 | 0.00 | 0.00 | 0.00 | 42 | 1014.2 |
| 20260503234554 | 13 | 0 | 0.0 | 3.2 | 0.00 | 0.00 | 0.00 | 37 | 1013.8 |
| 20260503233057 | 13 | 252 | 1.6 | 8.0 | 0.00 | 0.00 | 0.00 | 34 | 1013.8 |
| 20260503231558 | 15 | 222 | 1.6 | 14.5 | 0.00 | 0.00 | 0.00 | 34 | 1013.6 |
| 20260503230058 | 15 | 252 | 3.2 | 11.3 | 0.00 | 0.00 | 0.00 | 32 | 1013.7 |
| 20260503224556 | 15 | 244 | 6.4 | 11.3 | 0.00 | 0.00 | 0.00 | 31 | 1013.6 |
| 20260503223054 | 15 | 240 | 3.2 | 16.1 | 0.00 | 0.00 | 0.00 | 33 | 1013.4 |
| 20260503221554 | 15 | 218 | 9.7 | 19.3 | 0.00 | 0.00 | 0.00 | 30 | 1013.5 |
| 20260503220056 | 15 | 197 | 6.4 | 17.7 | 0.00 | 0.00 | 0.00 | 32 | 1013.4 |
| 20260503214556 | 15 | 231 | 16.1 | 27.4 | 0.00 | 0.00 | 0.00 | 30 | 1013.5 |
| 20260503213058 | 15 | 200 | 6.4 | 20.9 | 0.00 | 0.00 | 0.00 | 31 | 1013.5 |
| 20260503211601 | 15 | 13 | 6.4 | 19.3 | 0.00 | 0.00 | 0.00 | 32 | 1013.5 |
| 20260503210056 | 15 | 255 | 11.3 | 25.7 | 0.00 | 0.00 | 0.00 | 32 | 1013.6 |
| 20260503204558 | 15 | 246 | 11.3 | 25.7 | 0.00 | 0.00 | 0.00 | 31 | 1013.5 |
| 20260503203057 | 15 | 242 | 6.4 | 25.7 | 0.00 | 0.00 | 0.00 | 32 | 1013.7 |
| 20260503201559 | 15 | 254 | 9.7 | 24.1 | 0.00 | 0.00 | 0.00 | 32 | 1013.8 |
| 20260503200058 | 15 | 259 | 17.7 | 32.2 | 0.00 | 0.00 | 0.00 | 32 | 1013.8 |
| 20260503194601 | 15 | 262 | 9.7 | 24.1 | 0.00 | 0.00 | 0.00 | 34 | 1014.1 |
| 20260503193056 | 15 | 234 | 12.9 | 30.6 | 0.00 | 0.00 | 0.00 | 34 | 1014.1 |
| 20260503191556 | 14 | 283 | 12.9 | 29.0 | 0.00 | 0.00 | 0.00 | 34 | 1014.3 |
| 20260503190057 | 13 | 242 | 12.9 | 30.6 | 0.00 | 0.00 | 0.00 | 34 | 1014.5 |
| 20260503184619 | 14 | 188 | 8.0 | 30.6 | 0.00 | 0.00 | 0.00 | 32 | 1014.6 |
| 20260503183103 | 14 | 259 | 8.0 | 24.1 | 0.00 | 0.00 | 0.00 | 32 | 1015.0 |
| 20260503181603 | 14 | 17 | 4.8 | 25.7 | 0.00 | 0.00 | 0.00 | 33 | 1014.8 |
| 20260503180109 | 14 | 176 | 4.8 | 19.3 | 0.00 | 0.00 | 0.00 | 36 | 1015.2 |
| 20260503174601 | 13 | 262 | 12.9 | 24.1 | 0.00 | 0.00 | 0.00 | 35 | 1015.1 |
| 20260503173100 | 13 | 250 | 8.0 | 27.4 | 0.00 | 0.00 | 0.00 | 34 | 1015.3 |
| 20260503171612 | 13 | 264 | 11.3 | 27.4 | 0.00 | 0.00 | 0.00 | 33 | 1015.2 |
| 20260503170106 | 13 | 42 | 4.8 | 24.1 | 0.00 | 0.00 | 0.00 | 35 | 1015.4 |
| 20260503090117 | 4 | 199 | 3.2 | 6.4 | 0.00 | 0.00 | 0.00 | 70 | 1013.1 |
| 20260503081601 | 4 | 254 | 1.6 | 8.0 | 0.00 | 0.00 | 0.00 | 71 | 1012.9 |
| 20260503080108 | 4 | 0 | 3.2 | 9.7 | 0.00 | 0.00 | 0.00 | 71 | 1012.8 |
| 20260503071608 | 5 | 0 | 3.2 | 9.7 | 0.00 | 0.00 | 0.00 | 72 | 1012.4 |
| 20260503054601 | 5 | 257 | 1.6 | 6.4 | 0.00 | 0.00 | 0.00 | 72 | 1012.5 |